Athens, TN

6:59 PM EDT on August 29, 2016 (GMT -0400)
McMinn County

Weather History for KMMI - January, 2014

Change the Weather History Date:

Monday, January 6, 2014

  Actual Average Record
Temperature  
Mean Temperature 18 °F -  
Max Temperature 30 °F 44 °F 44 °F (2015)
Min Temperature 3 °F 25 °F 3 °F (2014)
Degree Days  
Heating Degree Days 48    
Moisture  
Dew Point 4 °F    
Average Humidity 66    
Maximum Humidity 100    
Minimum Humidity 44    
Precipitation  
Precipitation 0.00 in - - ()
Sea Level Pressure  
Sea Level Pressure 30.25 in    
Wind  
Wind Speed 8 mph (WNW)    
Max Wind Speed 15 mph    
Max Gust Speed -    
Visibility 10 miles    
Events      
Averages and records for this station are not official NWS values.
T = Trace of Precipitation, MM = Missing Value Source: NWS Daily Summary

Daily Weather History Graph

Daily Weather History Graph

Search for Another Location

Airport or City:

Trip Planner

Search our weather history database for the weather conditions in past years. The results will help you decide how hot, cold, wet, or windy it might be!

Date:

Astronomy

Jan. 06, 2014 Rise Set
Actual Time 7:47 AM EST 5:40 PM EST
Civil Twilight 7:19 AM EST 6:08 PM EST
Nautical Twilight 6:48 AM EST 6:40 PM EST
Astronomical Twilight 6:17 AM EST 7:11 PM EST
Moon 11:16 AM EST (1/6) 11:58 PM EST (1/6)
Length of Visible Light 10h 49m
Length of Day
9h 52m
Waxing Crescent, 34% of the Moon is Illuminated
Jan 6
Waxing Crescent
Jan 7
First Quarter
Jan 15
Full
Jan 24
Last Quarter
Jan 30
New

Hourly Weather History & Observations

Time (EST) Temp. Windchill Dew Point Humidity Pressure Visibility Wind Dir Wind Speed Gust Speed Precip Events Conditions
12:35 AM 30.2 °F 23.4 °F 28.4 °F 93% 29.88 in 1.8 mi WNW 6.9 mph - N/A   Overcast
12:55 AM 30.2 °F 23.4 °F 30.2 °F 100% 29.91 in 3.0 mi West 6.9 mph - N/A   Overcast
1:15 AM 28.4 °F 18.0 °F 28.4 °F 100% 29.93 in 8.0 mi West 12.7 mph - N/A   Overcast
1:35 AM 28.4 °F 22.2 °F 24.8 °F 86% 29.95 in 9.0 mi WNW 5.8 mph - N/A   Overcast
1:55 AM 26.6 °F 17.5 °F 23.0 °F 86% 29.97 in 10.0 mi NW 9.2 mph - N/A   Overcast
2:15 AM 26.6 °F 17.5 °F 21.2 °F 80% 30.00 in 10.0 mi WNW 9.2 mph - N/A   Overcast
2:35 AM 24.8 °F 16.9 °F 21.2 °F 86% 30.01 in 10.0 mi West 6.9 mph - N/A   Overcast
2:55 AM 24.8 °F 16.1 °F 21.2 °F 86% 30.02 in 10.0 mi West 8.1 mph - N/A   Overcast
3:35 AM 21.2 °F 10.9 °F 17.6 °F 86% 30.05 in 10.0 mi West 9.2 mph - N/A   Overcast
3:55 AM 21.2 °F 10.9 °F 17.6 °F 86% 30.05 in 10.0 mi West 9.2 mph - N/A   Overcast
4:15 AM 21.2 °F 11.7 °F 15.8 °F 80% 30.07 in 10.0 mi West 8.1 mph - N/A   Overcast
4:35 AM 21.2 °F 14.9 °F 15.8 °F 80% 30.07 in 10.0 mi Variable 4.6 mph - N/A   Overcast
4:55 AM 19.4 °F 7.2 °F 14.0 °F 80% 30.08 in 10.0 mi WNW 11.5 mph - N/A   Overcast
5:15 AM 19.4 °F 8.6 °F 12.2 °F 74% 30.09 in 10.0 mi WNW 9.2 mph - N/A   Overcast
5:35 AM 19.4 °F 7.9 °F 12.2 °F 74% 30.10 in 10.0 mi WNW 10.4 mph - N/A   Overcast
5:55 AM 19.4 °F 7.2 °F 12.2 °F 74% 30.11 in 10.0 mi WNW 11.5 mph - N/A   Overcast
6:15 AM 17.6 °F 7.3 °F 10.4 °F 73% 30.12 in 10.0 mi WNW 8.1 mph - N/A   Overcast
6:35 AM 17.6 °F 12.3 °F 10.4 °F 73% 30.14 in 10.0 mi Variable 3.5 mph - N/A   Overcast
6:55 AM 17.6 °F 12.3 °F 10.4 °F 73% 30.14 in 10.0 mi Variable 3.5 mph - N/A   Overcast
7:15 AM 17.6 °F 8.2 °F 10.4 °F 73% 30.15 in 10.0 mi NNW 6.9 mph - N/A   Overcast
7:35 AM 17.6 °F 7.3 °F 12.2 °F 79% 30.15 in 10.0 mi WNW 8.1 mph - N/A   Overcast
7:55 AM 17.6 °F 6.4 °F 10.4 °F 73% 30.17 in 10.0 mi WNW 9.2 mph - N/A   Overcast
8:15 AM 17.6 °F 6.4 °F 10.4 °F 73% 30.18 in 10.0 mi NW 9.2 mph - N/A   Overcast
8:35 AM 17.6 °F 6.4 °F 10.4 °F 73% 30.19 in 10.0 mi WNW 9.2 mph - N/A   Overcast
8:55 AM 15.8 °F 5.1 °F 10.4 °F 79% 30.20 in 8.0 mi WNW 8.1 mph - N/A   Overcast
9:15 AM 15.8 °F 5.1 °F 8.6 °F 73% 30.20 in 10.0 mi WNW 8.1 mph - N/A   Overcast
9:35 AM 15.8 °F 3.4 °F 6.8 °F 68% 30.21 in 10.0 mi WNW 10.4 mph - N/A   Overcast
9:55 AM 14.0 °F 1.2 °F 6.8 °F 73% 30.22 in 10.0 mi West 10.4 mph - N/A   Overcast
10:15 AM 14.0 °F 1.2 °F 6.8 °F 73% 30.23 in 10.0 mi WNW 10.4 mph - N/A   Overcast
10:35 AM 12.2 °F 0.7 °F 5.0 °F 73% 30.25 in 10.0 mi West 8.1 mph - N/A   Overcast
10:55 AM 12.2 °F -1.8 °F 3.2 °F 67% 30.26 in 10.0 mi West 11.5 mph - N/A   Overcast
11:15 AM 12.2 °F 2.9 °F 1.4 °F 62% 30.26 in 10.0 mi Variable 5.8 mph - N/A   Scattered Clouds
11:35 AM 12.2 °F -0.2 °F 1.4 °F 62% 30.25 in 10.0 mi West 9.2 mph - N/A   Partly Cloudy
11:55 AM 14.0 °F 0.5 °F 3.2 °F 62% 30.25 in 10.0 mi West 11.5 mph - N/A   Partly Cloudy
12:15 PM 12.2 °F -1.0 °F 1.4 °F 62% 30.26 in 10.0 mi WNW 10.4 mph - N/A   Mostly Cloudy
12:35 PM 12.2 °F -1.0 °F -0.4 °F 57% 30.27 in 10.0 mi WNW 10.4 mph - N/A   Scattered Clouds
12:55 PM 8.6 °F -8.3 °F -2.2 °F 62% 30.27 in 10.0 mi WNW 15.0 mph - N/A   Partly Cloudy
1:15 PM 10.4 °F -5.4 °F -4.0 °F 52% 30.26 in 10.0 mi West 13.8 mph - N/A   Clear
1:35 PM 8.6 °F -6.3 °F -5.8 °F 52% 30.28 in 10.0 mi West 11.5 mph - N/A   Clear
1:55 PM 10.4 °F -2.4 °F -4.0 °F 52% 30.28 in 10.0 mi NNW 9.2 mph - N/A   Partly Cloudy
2:15 PM 10.4 °F -4.1 °F -2.2 °F 57% 30.29 in 10.0 mi NW 11.5 mph - N/A   Scattered Clouds
2:35 PM 10.4 °F -4.8 °F -5.8 °F 48% 30.30 in 10.0 mi WNW 12.7 mph - N/A   Partly Cloudy
2:55 PM 10.4 °F -3.3 °F -4.0 °F 52% 30.30 in 10.0 mi WSW 10.4 mph - N/A   Clear
3:15 PM 10.4 °F -0.4 °F -4.0 °F 52% 30.31 in 10.0 mi West 6.9 mph - N/A   Partly Cloudy
3:35 PM 10.4 °F -3.3 °F -4.0 °F 52% 30.31 in 10.0 mi NW 10.4 mph - N/A   Partly Cloudy
3:55 PM 10.4 °F -2.4 °F -5.8 °F 48% 30.31 in 10.0 mi West 9.2 mph - N/A   Partly Cloudy
4:15 PM 10.4 °F -4.1 °F -7.6 °F 44% 30.32 in 10.0 mi West 11.5 mph - N/A   Clear
4:35 PM 8.6 °F -6.3 °F -5.8 °F 52% 30.33 in 10.0 mi WNW 11.5 mph - N/A   Partly Cloudy
4:55 PM 8.6 °F -4.7 °F -5.8 °F 52% 30.34 in 10.0 mi NW 9.2 mph - N/A   Partly Cloudy
5:15 PM 8.6 °F -2.6 °F -7.6 °F 48% 30.34 in 10.0 mi WNW 6.9 mph - N/A   Clear
5:35 PM 8.6 °F -3.7 °F -5.8 °F 52% 30.36 in 10.0 mi NW 8.1 mph - N/A   Clear
5:55 PM 6.8 °F -3.5 °F -7.6 °F 52% 30.37 in 10.0 mi NW 5.8 mph - N/A   Clear
6:15 PM 6.8 °F -3.5 °F -7.6 °F 52% 30.38 in 10.0 mi WNW 5.8 mph - N/A   Clear
6:35 PM 6.8 °F -2.0 °F -7.6 °F 52% 30.39 in 10.0 mi Variable 4.6 mph - N/A   Clear
6:55 PM 6.8 °F -0.1 °F -7.6 °F 52% 30.40 in 10.0 mi West 3.5 mph - N/A   Clear
7:15 PM 6.8 °F - -7.6 °F 52% 30.40 in 10.0 mi Calm Calm - N/A   Clear
7:35 PM 6.8 °F - -7.6 °F 52% 30.41 in 10.0 mi Calm Calm - N/A   Clear
7:55 PM 6.8 °F - -7.6 °F 52% 30.42 in 10.0 mi Calm Calm - N/A   Clear
8:15 PM 6.8 °F - -5.8 °F 56% 30.43 in 10.0 mi Calm Calm - N/A   Clear
8:35 PM 6.8 °F - -5.8 °F 56% 30.44 in 10.0 mi Calm Calm - N/A   Clear
8:55 PM 6.8 °F - -5.8 °F 56% 30.43 in 10.0 mi Calm Calm - N/A   Clear
9:15 PM 6.8 °F -0.1 °F -5.8 °F 56% 30.44 in 10.0 mi WNW 3.5 mph - N/A   Clear
9:35 PM 5.0 °F -4.1 °F -5.8 °F 61% 30.44 in 10.0 mi West 4.6 mph - N/A   Clear
9:55 PM 5.0 °F - -5.8 °F 61% 30.45 in 10.0 mi Calm Calm - N/A   Clear
10:15 PM 5.0 °F -2.1 °F -5.8 °F 61% 30.45 in 10.0 mi WNW 3.5 mph - N/A   Clear
10:35 PM 5.0 °F -4.1 °F -5.8 °F 61% 30.46 in 10.0 mi West 4.6 mph - N/A   Clear
10:55 PM 5.0 °F -5.6 °F -5.8 °F 61% 30.46 in 10.0 mi West 5.8 mph - N/A   Clear
11:15 PM 5.0 °F -6.9 °F -7.6 °F 56% 30.48 in 10.0 mi West 6.9 mph - N/A   Scattered Clouds
11:35 PM 5.0 °F -2.1 °F -7.6 °F 56% 30.47 in 10.0 mi WNW 3.5 mph - N/A   Mostly Cloudy
11:55 PM 3.2 °F -10.3 °F -7.6 °F 61% 30.48 in 10.0 mi WNW 8.1 mph - N/A   Mostly Cloudy